EW6370 Weather Reports


time (UTC)temp
C
wind
direction
speed
KPH
gust
KPH
rain 1hr
cm
rain 24hr
cm
rain mn
cm
humidity
%
barometer
mb
20260906023044 23 327 0.0 0.0 0.00 0.00 0.00 53 1022.8
20260906021545 23 331 0.0 0.0 0.00 0.00 0.00 53 1022.7
20260906020041 23 340 0.0 0.0 0.00 0.00 0.00 53 1022.6
20260906014548 23 76 0.0 0.0 0.00 0.00 0.00 53 1022.6
20260906013040 23 300 0.0 0.0 0.00 0.00 0.00 53 1022.5
20260906011539 23 301 0.0 1.6 0.00 0.00 0.00 53 1022.3
20260906010048 23 306 0.0 0.0 0.00 0.00 0.00 53 1022.3
20260906004545 23 306 0.0 0.0 0.00 0.00 0.00 54 1022.5
20260906003036 23 306 0.0 1.6 0.00 0.00 0.00 53 1022.2
20260906001548 23 307 0.0 0.0 0.00 0.00 0.00 53 1022.2
20260906000132 23 309 0.0 0.0 0.00 0.00 0.00 53 1022.1
20260905234530 23 309 0.0 1.6 0.00 0.00 0.00 52 1021.8
20260905233032 23 311 0.0 1.6 0.00 0.00 0.00 52 1021.8
20260905231529 23 311 0.0 1.6 0.00 0.00 0.00 51 1021.7
20260905230031 23 309 0.0 3.2 0.00 0.00 0.00 51 1021.6
20260905224525 23 304 0.0 0.0 0.00 0.00 0.00 51 1021.7
20260905223039 23 309 0.0 0.0 0.00 0.00 0.00 51 1021.6
20260905221524 24 309 0.0 1.6 0.00 0.00 0.00 50 1021.5
20260905220021 24 317 0.0 1.6 0.00 0.00 0.00 51 1021.5
20260905214519 24 315 0.0 0.0 0.00 0.00 0.00 50 1021.4
20260905213018 24 315 0.0 1.6 0.00 0.00 0.00 50 1021.3
20260905211516 24 304 0.0 3.2 0.00 0.00 0.00 50 1021.1
20260905210016 25 313 0.0 1.6 0.00 0.00 0.00 50 1021.0
20260905204514 25 325 0.0 3.2 0.00 0.00 0.00 49 1021.0
20260905203016 25 296 0.0 1.6 0.00 0.00 0.00 49 1020.9
20260905201520 25 350 0.0 1.6 0.00 0.00 0.00 49 1020.7
20260905200009 25 326 0.0 1.6 0.00 0.00 0.00 49 1020.3
20260905194508 25 306 0.0 1.6 0.00 0.00 0.00 49 1020.1
20260905193015 25 304 0.0 1.6 0.00 0.00 0.00 49 1020.2
20260905191506 25 315 0.0 1.6 0.00 0.00 0.00 48 1020.0
20260905190005 25 298 0.0 1.6 0.00 0.00 0.00 48 1019.9
20260905184548 26 307 0.0 4.8 0.00 0.00 0.00 47 1019.6
20260905183026 26 306 0.0 1.6 0.00 0.00 0.00 46 1019.3
20260905181517 26 304 0.0 0.0 0.00 0.00 0.00 46 1019.1
20260905180016 26 296 0.0 3.2 0.00 0.00 0.00 46 1018.6
20260905174518 26 306 0.0 4.8 0.00 0.00 0.00 45 1018.3
20260905173017 27 296 0.0 1.6 0.00 0.00 0.00 44 1018.2
20260905171510 27 311 0.0 1.6 0.00 0.00 0.00 43 1018.1
20260905170010 27 311 0.0 4.8 0.00 0.00 0.00 43 1018.1
20260905164512 27 304 0.0 1.6 0.00 0.00 0.00 42 1017.9
20260905163007 28 289 0.0 4.8 0.00 0.00 0.00 41 1017.7
20260905161506 28 295 0.0 3.2 0.00 0.00 0.00 41 1017.7
20260905160005 28 304 0.0 4.8 0.00 0.00 0.00 39 1017.4
20260905154503 28 169 0.0 6.4 0.00 0.00 0.00 39 1017.2
20260905153003 29 327 0.0 3.2 0.00 0.00 0.00 38 1017.3
20260905151502 29 319 0.0 3.2 0.00 0.00 0.00 39 1017.1
20260905150002 29 311 0.0 3.2 0.00 0.00 0.00 38 1017.1
20260905144500 28 323 0.0 9.7 0.00 0.00 0.00 39 1017.1
20260905143002 28 309 0.0 6.4 0.00 0.00 0.00 38 1017.2
20260905141600 29 306 0.0 4.8 0.00 0.00 0.00 38 1017.1
20260905140200 29 344 0.0 4.8 0.00 0.00 0.00 38 1017.1
20260905134600 30 305 0.0 3.2 0.00 0.00 0.00 37 1016.8
20260905133059 30 302 0.0 8.0 0.00 0.00 0.00 36 1016.5
20260905131606 30 285 0.0 6.4 0.00 0.00 0.00 36 1016.6
20260905130058 30 321 0.0 9.7 0.00 0.00 0.00 37 1016.5
20260905124558 31 321 0.0 1.6 0.00 0.00 0.00 36 1016.8
20260905123109 31 300 0.0 4.8 0.00 0.00 0.00 36 1016.9
20260905121555 31 154 0.0 3.2 0.00 0.00 0.00 36 1017.0
20260905120055 30 298 0.0 12.9 0.00 0.00 0.00 37 1017.0
20260905114554 30 302 0.0 14.5 0.00 0.00 0.00 37 1016.9
20260905113054 30 323 0.0 6.4 0.00 0.00 0.00 37 1017.1
20260905111557 30 299 0.0 11.3 0.00 0.00 0.00 38 1017.1
20260905110052 30 323 0.0 4.8 0.00 0.00 0.00 38 1017.2
20260905104551 30 311 0.0 11.3 0.00 0.00 0.00 38 1017.0
20260905103056 30 319 0.0 8.0 0.00 0.00 0.00 39 1016.9
20260905101548 30 321 0.0 6.4 0.00 0.00 0.00 41 1016.9
20260905100056 30 304 0.0 6.4 0.00 0.00 0.00 43 1016.6
20260905094546 30 242 0.0 12.9 0.00 0.00 0.00 45 1016.7
20260905093043 30 304 0.0 11.3 0.00 0.00 0.00 46 1016.4
20260905091547 31 319 0.0 6.4 0.00 0.00 0.00 42 1016.1
20260905090040 32 115 0.0 0.0 0.00 0.00 0.00 37 1016.0
20260905084537 32 126 0.0 0.0 0.00 0.00 0.00 36 1015.8
20260905083034 32 121 0.0 0.0 0.00 0.00 0.00 36 1015.6
20260905081530 31 228 0.0 3.2 0.00 0.00 0.00 35 1015.4
20260905080039 31 144 0.0 1.6 0.00 0.00 0.00 38 1015.1
20260905074524 30 101 0.0 1.6 0.00 0.00 0.00 37 1014.9
20260905073025 30 86 0.0 1.6 0.00 0.00 0.00 37 1014.8
20260905071519 29 129 0.0 1.6 0.00 0.00 0.00 38 1014.7
20260905070012 28 141 0.0 0.0 0.00 0.00 0.00 40 1014.7
20260905064508 27 117 0.0 1.6 0.00 0.00 0.00 44 1014.7
20260905063003 26 130 0.0 1.6 0.00 0.00 0.00 47 1014.7
20260905061601 25 128 0.0 0.0 0.00 0.00 0.00 52 1014.6
20260905060100 24 127 0.0 0.0 0.00 0.00 0.00 54 1014.5
20260905054554 23 125 0.0 0.0 0.00 0.00 0.00 58 1014.4
20260905053056 22 125 0.0 0.0 0.00 0.00 0.00 60 1014.3
20260905051552 22 125 0.0 1.6 0.00 0.00 0.00 61 1014.2
20260905050040 22 127 0.0 0.0 0.00 0.00 0.00 62 1014.1
20260905044541 22 315 0.0 0.0 0.00 0.00 0.00 62 1014.1
20260905043031 22 315 0.0 1.6 0.00 0.00 0.00 62 1013.9
20260905041530 22 140 0.0 0.0 0.00 0.00 0.00 61 1013.9
20260905040035 22 140 0.0 0.0 0.00 0.00 0.00 61 1014.0
20260905034528 22 140 0.0 0.0 0.00 0.00 0.00 61 1013.9
20260905033027 22 141 0.0 0.0 0.00 0.00 0.00 61 1013.8
20260905031535 22 140 0.0 0.0 0.00 0.00 0.00 60 1013.8
20260905030026 22 138 0.0 0.0 0.00 0.00 0.00 60 1013.7
20260905024525 22 137 0.0 0.0 0.00 0.00 0.00 60 1013.8